Wind_Speed
7 7 7 7 7 7 8 10 12 13 14 14 14 14 14 14 14 14 13 13 12 11 11 10 10 9 9 8 8 8 7 7 7 6 6 5 5 5 5 5 5 5 4
7 8 7 7 6 7 8 9 11 12 13 13 13 13 13 13 13 13 12 11 11 11 10 9 9 8 8 8 8 7 7 6 6 6 5 5 5 5 5 5 5 5 5
6 7 7 7 6 7 8 9 10 11 11 12 12 12 12 11 11 11 10 10 10 9 9 8 8 8 8 7 7 7 6 6 6 5 5 5 5 5 4 5 5 5 5
5 6 6 7 6 7 7 8 9 10 10 10 10 11 10 10 10 9 9 9 8 8 8 7 7 7 7 7 6 6 5 5 5 5 4 4 4 4 4 4 4 4 4
5 5 6 6 6 7 7 8 8 9 9 9 9 9 9 9 8 8 8 8 8 7 7 7 7 6 6 6 5 5 5 4 4 4 4 3 3 3 3 3 3 3 3
4 5 5 5 6 7 7 7 8 9 9 8 9 9 8 8 7 7 7 7 7 7 6 6 6 5 5 5 5 4 4 4 3 3 3 3 2 2 3 3 2 2 2
3 5 5 6 6 7 7 8 8 9 8 8 8 8 8 7 7 7 6 6 6 6 6 6 5 5 4 4 4 4 4 3 3 3 3 2 2 2 2 2 2 2 1
2 4 5 6 6 7 7 8 8 8 8 8 8 8 7 7 6 6 6 5 5 5 5 5 5 4 4 4 3 3 3 3 3 2 2 2 2 1 1 1 1 1 1
2 4 5 6 6 7 8 8 8 8 8 8 8 7 7 6 6 5 5 5 5 5 5 4 4 4 4 3 3 2 2 2 2 2 2 2 2 1 1 1 0 0 1
2 3 5 6 7 7 8 8 8 8 8 8 8 8 7 6 6 5 5 5 5 5 4 4 3 3 3 3 2 2 2 2 1 1 1 1 1 1 1 1 0 1 1
2 3 5 6 7 7 8 8 8 8 8 8 8 8 7 6 6 5 5 5 5 4 3 3 3 2 2 2 2 2 2 2 1 1 1 1 1 1 1 0 0 1 1
2 3 4 6 7 8 9 9 9 9 8 8 8 8 7 6 5 5 5 5 4 3 3 3 2 2 2 2 2 2 2 1 1 1 1 1 1 0 1 1 1 1 1
3 4 5 7 7 8 9 9 9 9 9 9 8 7 6 6 5 5 5 4 4 3 2 2 2 2 2 2 2 2 1 1 1 1 1 0 0 0 1 1 1 1 1
4 4 5 7 8 9 9 9 9 10 9 9 8 8 7 6 5 5 5 4 4 3 3 2 2 2 2 2 2 1 1 1 1 1 1 1 0 1 1 1 1 1 2
4 5 6 7 9 10 10 10 10 10 10 9 9 8 7 7 6 6 6 5 4 3 3 3 3 2 2 2 2 2 1 1 1 1 1 1 1 1 1 2 2 1 2
5 6 6 7 8 10 10 11 11 11 11 10 10 9 8 8 7 6 6 5 5 4 4 3 3 2 2 2 2 1 1 1 1 1 1 1 1 1 1 2 2 2 2
6 7 8 8 8 9 11 11 12 12 12 11 11 10 9 9 8 7 6 6 6 5 5 4 3 2 2 2 1 1 1 1 1 1 1 1 1 1 1 1 2 2 2
6 7 8 8 8 9 10 11 12 12 12 11 11 11 11 10 9 8 7 7 7 6 5 4 3 2 2 2 1 1 0 1 0 1 1 1 1 1 1 1 1 2 2
7 8 8 9 9 10 9 10 11 12 12 12 12 12 12 11 10 9 8 8 8 7 6 5 4 3 2 2 1 0 0 1 1 1 1 1 1 1 1 1 2 2 3
8 8 9 9 9 10 10 10 11 13 12 12 13 12 12 12 11 10 10 9 8 8 7 6 5 4 3 2 2 1 1 1 1 1 1 1 1 0 1 1 2 3 4
8 10 10 10 10 10 10 10 11 13 13 12 13 13 12 12 13 12 11 10 10 9 8 7 6 5 5 4 3 2 1 1 1 1 1 1 1 1 1 2 3 3 4
10 11 12 11 11 11 11 11 11 12 13 12 12 13 13 13 12 13 12 11 10 10 9 8 8 7 6 5 4 3 2 2 1 2 2 1 2 2 3 3 4 4 5
10 10 12 13 12 13 12 12 12 13 13 13 13 13 14 13 13 13 13 13 12 11 11 10 9 8 7 6 5 4 4 3 3 3 3 3 3 3 4 4 5 5 6
12 12 12 13 14 14 14 13 13 14 14 14 14 14 15 14 14 14 14 14 14 13 12 11 10 9 8 8 7 6 5 5 5 5 4 4 4 5 5 5 5 6 6
12 13 13 13 14 13 14 14 14 14 15 15 15 15 15 15 14 15 15 16 15 14 13 13 12 10 9 9 8 7 6 6 6 6 5 6 6 5 6 6 6 7 7
13 13 13 14 15 14 14 15 14 15 15 15 15 15 15 15 15 16 16 16 16 15 15 14 13 12 11 10 9 8 8 7 7 6 6 6 7 7 7 7 8 8 8
Wind_Direction
104 107 112 112 114 118 123 124 120 116 113 110 106 103 101 99 96 94 92 91 90 90 91 91 90 90 89 90 89 88 89 91 92 90 87 86 82 82 86 89 99 100 101
108 114 117 119 122 127 131 130 126 122 119 115 112 109 106 103 98 95 93 92 92 91 90 89 89 90 88 86 85 86 86 87 88 86 84 82 82 83 86 94 100 103 104
108 119 124 126 130 135 138 137 133 129 124 121 118 115 110 106 100 96 95 94 93 92 89 87 86 86 84 84 86 87 86 85 84 80 77 76 80 83 87 92 100 103 98
114 122 130 132 138 142 145 144 141 137 130 126 124 119 115 111 106 102 100 98 95 92 90 88 88 88 87 87 88 89 87 84 80 74 71 75 82 86 87 90 94 96 93
130 134 136 140 145 150 151 151 148 144 136 131 128 124 119 117 112 109 105 105 100 94 91 91 90 88 90 91 91 91 90 87 81 75 73 79 88 88 91 96 96 92 93
137 143 145 149 155 156 157 157 152 149 143 137 133 129 126 124 119 113 110 108 103 98 94 93 90 88 90 93 94 91 90 88 79 77 78 78 86 91 92 92 96 98 96
146 152 153 159 164 165 165 164 158 154 149 145 141 135 132 129 126 121 116 112 107 103 101 96 92 89 90 95 94 91 87 85 78 80 84 78 86 93 94 102 100 94 96
153 168 166 171 174 173 173 171 167 161 156 152 147 142 138 134 132 128 122 118 114 110 107 101 96 90 90 94 91 86 83 82 81 84 84 84 86 84 94 111 106 79 51
161 181 181 184 186 183 179 177 172 169 166 160 155 151 148 142 137 135 131 126 121 116 113 108 102 92 91 94 88 80 83 84 87 88 84 78 71 74 78 92 93 55 9
184 186 193 196 196 191 185 181 177 174 173 169 163 159 155 150 144 143 141 136 127 120 115 107 101 95 89 88 85 80 82 84 78 90 91 82 78 84 68 70 42 350 348
203 201 202 207 204 198 190 186 184 182 179 175 170 165 161 157 152 149 148 143 134 127 117 107 106 98 86 87 94 85 82 81 78 72 92 95 75 69 48 11 356 353 348
223 217 216 210 206 203 199 194 191 189 187 182 175 171 169 167 164 161 156 150 141 133 119 115 113 103 92 93 92 83 84 74 71 59 48 61 39 8 329 338 359 345 340
233 234 229 213 206 204 204 201 197 195 193 188 182 178 178 179 177 174 166 160 157 148 136 125 118 114 100 92 85 83 84 76 65 58 40 49 65 21 356 353 346 338 336
238 240 234 219 211 211 210 208 205 201 199 195 190 189 189 188 186 185 180 173 173 163 157 139 127 116 103 86 82 80 74 63 61 58 50 70 55 357 351 346 346 341 336
241 236 233 226 216 216 216 214 212 207 206 204 199 197 199 198 194 190 191 186 179 169 160 153 144 118 106 91 88 90 79 63 54 55 56 43 2 343 346 3 9 351 346
246 240 237 233 224 220 220 220 217 213 211 212 209 208 206 204 200 196 196 192 182 171 164 160 152 131 116 118 107 97 85 73 73 94 89 63 40 13 5 0 358 7 355
250 242 242 237 232 226 224 223 221 217 216 215 214 214 211 208 204 200 199 198 186 179 171 166 158 141 133 142 132 117 85 100 99 122 109 96 78 46 27 1 352 354 348
256 247 245 240 236 231 228 225 225 221 219 218 218 218 215 211 210 205 202 198 192 187 182 177 171 160 146 149 137 82 93 133 136 165 151 142 110 74 31 351 340 338 339
263 253 249 244 238 234 231 229 227 223 221 222 224 222 217 215 213 210 205 200 196 193 191 189 190 184 181 184 199 250 255 191 181 177 182 186 166 55 21 353 336 338 338
262 256 251 245 242 242 241 235 230 226 223 226 228 222 218 217 216 214 211 207 204 202 199 200 203 203 205 208 222 235 252 236 208 212 221 216 223 296 8 352 332 324 331
268 258 251 245 241 240 239 237 233 227 224 226 226 222 221 219 220 218 215 212 209 206 206 211 210 211 215 219 230 236 243 228 221 220 219 223 234 262 310 331 334 329 333
272 267 252 245 238 235 238 242 237 230 225 225 223 222 222 224 222 219 216 215 215 214 214 215 216 218 222 225 230 232 230 231 226 224 233 248 265 278 290 303 317 324 329
274 266 253 247 243 238 238 239 235 232 230 230 224 223 224 226 224 224 223 220 219 220 219 217 219 222 224 226 228 233 231 228 228 237 252 263 275 285 291 297 307 314 320
271 265 259 250 247 244 241 238 235 232 231 229 227 225 226 227 227 226 222 219 219 221 222 222 222 223 225 228 228 233 236 238 240 247 258 267 275 283 290 298 302 308 315
267 264 261 253 247 243 243 239 237 234 233 228 228 228 228 228 229 228 223 221 222 224 225 225 223 224 227 229 229 231 235 243 251 256 262 268 275 284 291 297 299 303 308
265 264 261 252 247 245 244 239 238 235 232 227 226 227 229 230 232 229 225 224 224 226 228 228 229 230 230 231 231 233 238 244 252 258 266 271 275 282 289 294 295 297 299
Height
5882 5882 5883 5883 5883 5884 5884 5884 5884 5884 5884 5884 5885 5885 5885 5885 5885 5885 5886 5886 5886 5886 5886 5887 5887 5887 5887 5887 5887 5888 5888 5888 5888 5887 5887 5887 5886 5886 5886 5885 5885 5885 5885
5883 5883 5884 5884 5884 5884 5885 5885 5885 5885 5885 5886 5886 5886 5886 5886 5887 5887 5887 5887 5888 5888 5888 5888 5888 5888 5888 5888 5889 5889 5889 5889 5889 5888 5888 5888 5887 5887 5887 5886 5886 5886 5886
5884 5884 5884 5885 5885 5885 5886 5886 5886 5886 5887 5887 5887 5887 5888 5888 5888 5888 5889 5889 5889 5889 5889 5889 5889 5889 5889 5889 5890 5890 5890 5890 5890 5889 5889 5889 5888 5888 5888 5887 5887 5887 5887
5884 5884 5885 5885 5886 5886 5886 5887 5887 5887 5887 5888 5888 5889 5889 5889 5889 5889 5890 5890 5890 5890 5890 5891 5891 5891 5891 5891 5891 5891 5891 5891 5891 5890 5890 5889 5889 5889 5889 5888 5888 5888 5888
5885 5885 5885 5885 5886 5886 5887 5887 5887 5888 5888 5889 5889 5889 5890 5890 5890 5890 5891 5891 5891 5891 5891 5891 5891 5891 5891 5891 5891 5891 5891 5892 5891 5891 5891 5890 5890 5890 5890 5889 5889 5889 5889
5885 5885 5885 5886 5886 5887 5887 5888 5888 5888 5889 5889 5890 5890 5890 5891 5891 5891 5892 5892 5892 5892 5892 5892 5892 5892 5892 5892 5892 5892 5892 5892 5892 5892 5891 5891 5891 5891 5890 5890 5890 5890 5889
5885 5885 5885 5886 5887 5887 5887 5888 5888 5889 5889 5890 5890 5891 5891 5891 5892 5892 5892 5893 5893 5893 5893 5893 5893 5893 5893 5893 5893 5893 5893 5893 5893 5892 5892 5892 5891 5891 5891 5891 5890 5890 5890
5885 5885 5885 5886 5886 5887 5888 5888 5889 5889 5890 5890 5891 5891 5891 5892 5892 5893 5893 5893 5893 5893 5893 5893 5893 5893 5893 5893 5893 5894 5894 5894 5893 5893 5892 5892 5892 5892 5892 5891 5891 5891 5890
5884 5885 5885 5886 5886 5887 5887 5888 5889 5889 5890 5890 5891 5891 5892 5892 5893 5893 5893 5893 5894 5894 5894 5894 5894 5894 5894 5894 5894 5894 5894 5894 5894 5893 5893 5892 5892 5892 5892 5891 5891 5891 5891
5884 5884 5885 5885 5886 5886 5887 5888 5888 5889 5890 5891 5891 5892 5892 5892 5893 5893 5893 5894 5894 5894 5894 5894 5894 5894 5894 5894 5895 5895 5894 5894 5894 5893 5893 5893 5892 5892 5892 5892 5891 5891 5891
5884 5884 5885 5885 5885 5886 5887 5887 5888 5889 5890 5890 5891 5891 5892 5892 5893 5893 5893 5894 5894 5894 5894 5895 5895 5895 5895 5895 5895 5895 5895 5894 5894 5894 5893 5893 5893 5893 5892 5892 5892 5891 5891
5883 5883 5884 5884 5885 5885 5886 5887 5888 5888 5889 5890 5891 5891 5892 5892 5893 5893 5893 5894 5894 5894 5895 5895 5895 5895 5895 5895 5895 5895 5895 5894 5894 5894 5893 5893 5893 5893 5892 5892 5892 5891 5891
5882 5883 5883 5883 5884 5885 5886 5886 5887 5888 5889 5890 5890 5891 5892 5892 5892 5893 5893 5893 5894 5894 5895 5895 5895 5895 5895 5895 5895 5895 5895 5894 5894 5894 5893 5893 5893 5893 5892 5892 5892 5891 5891
5881 5882 5882 5882 5883 5884 5885 5886 5886 5887 5888 5889 5890 5891 5891 5892 5892 5893 5893 5894 5894 5894 5895 5895 5895 5895 5895 5895 5895 5895 5895 5894 5894 5894 5893 5893 5893 5893 5892 5892 5892 5891 5891
5880 5881 5881 5881 5882 5882 5883 5884 5885 5886 5887 5888 5889 5890 5891 5891 5892 5893 5893 5893 5894 5894 5894 5895 5895 5895 5895 5895 5895 5895 5895 5894 5894 5894 5894 5893 5893 5893 5893 5892 5891 5891 5891
5879 5879 5880 5880 5880 5881 5882 5883 5884 5885 5886 5887 5888 5889 5890 5891 5891 5892 5893 5893 5894 5894 5894 5895 5895 5895 5895 5895 5895 5895 5895 5894 5894 5894 5894 5893 5893 5893 5893 5892 5892 5891 5891
5877 5878 5878 5878 5879 5879 5880 5881 5882 5883 5884 5886 5887 5888 5889 5890 5891 5891 5892 5893 5893 5894 5894 5894 5895 5895 5895 5895 5895 5895 5895 5894 5894 5894 5894 5894 5893 5893 5893 5892 5892 5891 5891
5876 5876 5876 5876 5877 5877 5878 5879 5880 5881 5883 5884 5885 5887 5888 5889 5890 5890 5891 5892 5893 5893 5894 5894 5895 5895 5895 5895 5895 5895 5895 5894 5894 5894 5894 5894 5893 5893 5893 5892 5892 5891 5891
5874 5874 5874 5874 5875 5876 5877 5877 5878 5880 5881 5882 5883 5885 5886 5887 5889 5889 5890 5891 5892 5893 5893 5894 5895 5895 5895 5895 5895 5895 5895 5894 5894 5894 5894 5893 5893 5893 5893 5892 5892 5891 5891
5872 5872 5872 5873 5873 5874 5874 5875 5876 5877 5878 5880 5881 5883 5884 5886 5887 5888 5889 5890 5891 5892 5893 5893 5894 5894 5895 5895 5895 5895 5894 5894 5894 5894 5894 5893 5893 5893 5893 5892 5892 5891 5890
5869 5870 5870 5870 5871 5872 5872 5873 5874 5875 5876 5878 5879 5881 5882 5884 5885 5887 5888 5889 5890 5891 5892 5893 5893 5894 5894 5894 5894 5894 5894 5894 5894 5893 5893 5893 5893 5893 5892 5892 5892 5891 5890
5867 5867 5867 5868 5868 5869 5870 5871 5872 5873 5874 5875 5877 5878 5880 5882 5883 5885 5887 5888 5889 5890 5891 5892 5892 5893 5893 5893 5894 5894 5894 5894 5894 5893 5893 5893 5893 5892 5892 5892 5891 5890 5889
5864 5864 5864 5865 5866 5866 5867 5868 5869 5870 5872 5873 5875 5876 5878 5880 5882 5883 5884 5886 5887 5888 5889 5890 5891 5892 5892 5893 5893 5893 5893 5893 5893 5893 5893 5893 5892 5892 5891 5891 5890 5890 5889
5861 5861 5862 5862 5863 5864 5864 5865 5866 5867 5869 5871 5872 5874 5876 5878 5879 5881 5882 5883 5885 5886 5888 5889 5890 5890 5891 5891 5891 5892 5892 5892 5892 5893 5893 5892 5891 5891 5891 5890 5890 5889 5888
5858 5858 5859 5859 5860 5860 5861 5862 5863 5864 5866 5868 5870 5872 5873 5875 5877 5878 5880 5881 5883 5884 5886 5887 5888 5889 5889 5890 5890 5891 5891 5891 5891 5892 5892 5891 5891 5890 5890 5889 5889 5888 5887
5855 5855 5855 5856 5857 5857 5858 5859 5860 5861 5863 5865 5868 5869 5871 5873 5874 5876 5877 5879 5880 5882 5883 5884 5886 5887 5887 5888 5889 5889 5890 5890 5890 5890 5890 5890 5889 5889 5889 5888 5887 5887 5886